Weather History for KBCK - October, 2012

Change the Weather History Date:

Tuesday, October 9, 2012

  Actual Average (KLSE) Record (KLSE)
Temperature  
Mean Temperature 49 °F 53 °F  
Max Temperature 59 °F 63 °F 85 °F (2010)
Min Temperature 37 °F 43 °F 24 °F (1895)
Degree Days  
Heating Degree Days 16 13  
Month to date heating degree days 101  
Since 1 July heating degree days 261  
Cooling Degree Days 0 0  
Month to date cooling degree days 7  
Year to date cooling degree days 781  
Moisture  
Dew Point 41 °F    
Average Humidity 87    
Maximum Humidity 100    
Minimum Humidity 36    
Precipitation  
Precipitation 0.19 in 0.07 in 1.45 in (1968)
Month to date precipitation 0.74  
Year to date precipitation 28.26  
Snow  
Snow 0.00 in 0.00 in 0.60 in (1925)
Month to date snowfall 0.0  
Since 1 July snowfall 0.0  
Snow Depth -    
Sea Level Pressure  
Sea Level Pressure 29.79 in    
Wind  
Wind Speed 7 mph (WSW)    
Max Wind Speed 16 mph    
Max Gust Speed 28 mph    
Visibility 9 miles    
Events Rain    
T = Trace of Precipitation, MM = Missing Value Source: NWS Daily Summary

Daily Weather History Graph

Daily Weather History Graph

Search for Another Location

Airport or City:

Trip Planner

Search our weather history database for the weather conditions in past years. The results will help you decide how hot, cold, wet, or windy it might be!

Date:

Astronomy

Oct. 09, 2012 Rise Set
Actual Time 7:11 AM CDT 6:28 PM CDT
Civil Twilight 6:42 AM CDT 6:57 PM CDT
Nautical Twilight 6:08 AM CDT 7:31 PM CDT
Astronomical Twilight 5:35 AM CDT 8:04 PM CDT
Moon 12:35 AM CDT (10/9) 3:08 PM CDT (10/9)
Length of Visible Light 12h 15m
Length of Day
11h 17m
Last Quarter, 36% of the Moon is Illuminated
Oct 9
Last Quarter
Oct 15
New
Oct 21
First Quarter
Oct 29
Full
Nov 6
Last Quarter

Hourly Weather History & Observations

Time (CDT) Temp. Windchill Dew Point Humidity Pressure Visibility Wind Dir Wind Speed Gust Speed Precip Events Conditions
12:15 AM 59.0 °F - 32.0 °F 36% 29.75 in 10.0 mi SW 15.0 mph 19.6 mph N/A   Overcast
12:35 AM 57.2 °F - 32.0 °F 38% 29.75 in 10.0 mi WSW 10.4 mph 17.3 mph N/A   Overcast
12:55 AM 57.2 °F - 33.8 °F 41% 29.76 in 10.0 mi WSW 16.1 mph 24.2 mph N/A Rain Light Rain
1:15 AM 55.4 °F - 37.4 °F 51% 29.76 in 10.0 mi WSW 9.2 mph 19.6 mph N/A Rain Rain
1:35 AM 53.6 °F - 41.0 °F 62% 29.77 in 10.0 mi SW 8.1 mph - N/A Rain Light Rain
1:55 AM 51.8 °F - 42.8 °F 71% 29.78 in 10.0 mi SW 6.9 mph - N/A Rain Rain
2:15 AM 50.0 °F - 44.6 °F 82% 29.78 in 10.0 mi SW 4.6 mph - 0.01 in Rain Light Rain
2:35 AM 48.2 °F - 46.4 °F 93% 29.77 in 10.0 mi Calm Calm - 0.01 in Rain Light Rain
3:15 AM 46.4 °F 44.3 °F 46.4 °F 100% 29.76 in 10.0 mi South 4.6 mph - N/A   Overcast
3:35 AM 46.4 °F - 46.4 °F 100% 29.76 in 10.0 mi Calm Calm - N/A   Overcast
3:55 AM 46.4 °F - 46.4 °F 100% 29.75 in 10.0 mi Calm Calm - N/A   Mostly Cloudy
4:15 AM 46.4 °F 45.2 °F 46.4 °F 100% 29.75 in 10.0 mi South 3.5 mph - N/A   Mostly Cloudy
4:35 AM 46.4 °F 45.2 °F 46.4 °F 100% 29.76 in 10.0 mi South 3.5 mph - N/A   Overcast
4:55 AM 46.4 °F - 46.4 °F 100% 29.76 in 10.0 mi Calm Calm - N/A   Overcast
5:15 AM 46.4 °F - 46.4 °F 100% 29.76 in 10.0 mi Calm Calm - N/A   Overcast
5:35 AM 46.4 °F 45.2 °F 46.4 °F 100% 29.75 in 10.0 mi South 3.5 mph - 0.01 in   Overcast
6:15 AM 46.4 °F 45.2 °F 46.4 °F 100% 29.76 in 10.0 mi SSW 3.5 mph - N/A   Mostly Cloudy
6:35 AM 46.4 °F - 46.4 °F 100% 29.76 in 7.0 mi Calm Calm - N/A   Overcast
6:55 AM 46.4 °F - 46.4 °F 100% 29.76 in 10.0 mi Calm Calm - N/A   Overcast
7:15 AM 46.4 °F - 46.4 °F 100% 29.76 in 10.0 mi Calm Calm - N/A   Overcast
7:35 AM 46.4 °F - 46.4 °F 100% 29.76 in 10.0 mi Calm Calm - N/A   Overcast
7:55 AM 46.4 °F - 46.4 °F 100% 29.76 in 10.0 mi Calm Calm - N/A   Overcast
8:15 AM 46.4 °F - 46.4 °F 100% 29.77 in 10.0 mi Calm Calm - N/A   Drizzle
8:35 AM 46.4 °F - 46.4 °F 100% 29.76 in 10.0 mi Calm Calm - N/A Rain Light Rain
8:55 AM 46.4 °F - 46.4 °F 100% 29.76 in 10.0 mi Calm Calm - N/A Rain Rain
9:15 AM 46.4 °F 44.3 °F 46.4 °F 100% 29.76 in 10.0 mi SSW 4.6 mph - N/A Rain Rain
9:35 AM 46.4 °F 44.3 °F 46.4 °F 100% 29.76 in 7.0 mi SSW 4.6 mph - 0.01 in Rain Rain
9:55 AM 46.4 °F 44.3 °F 46.4 °F 100% 29.75 in 10.0 mi South 4.6 mph - 0.01 in   Light Drizzle
10:15 AM 46.4 °F 43.5 °F 46.4 °F 100% 29.75 in 10.0 mi South 5.8 mph - 0.01 in   Overcast
10:35 AM 46.4 °F 44.3 °F 46.4 °F 100% 29.75 in 10.0 mi SSW 4.6 mph - 0.01 in Rain Light Rain
10:55 AM 46.4 °F 43.5 °F 46.4 °F 100% 29.75 in 10.0 mi SSW 5.8 mph - 0.01 in   Light Drizzle
11:15 AM 46.4 °F 43.5 °F 46.4 °F 100% 29.75 in 7.0 mi SSW 5.8 mph - N/A Rain Rain
11:35 AM 48.2 °F - 48.2 °F 100% 29.75 in 5.0 mi SW 6.9 mph - N/A Rain Light Rain
11:55 AM 46.4 °F 43.5 °F 46.4 °F 100% 29.76 in 3.0 mi WSW 5.8 mph - 0.05 in Rain Rain
12:15 PM 46.4 °F 39.8 °F 46.4 °F 100% 29.78 in 5.0 mi WNW 16.1 mph 25.3 mph 0.03 in Rain Rain
12:35 PM 44.6 °F 39.2 °F 44.6 °F 100% 29.78 in 7.0 mi WNW 10.4 mph 17.3 mph 0.05 in Rain Rain
12:55 PM 44.6 °F 39.7 °F 42.8 °F 93% 29.78 in 7.0 mi WNW 9.2 mph 17.3 mph 0.07 in Rain Rain
1:15 PM 44.6 °F 39.2 °F 44.6 °F 100% 29.78 in 7.0 mi West 10.4 mph - N/A Rain Light Rain
1:35 PM 44.6 °F 39.2 °F 42.8 °F 93% 29.79 in 7.0 mi West 10.4 mph - 0.01 in Rain Light Rain
1:55 PM 42.8 °F 37.0 °F 42.8 °F 100% 29.79 in 5.0 mi WNW 10.4 mph 18.4 mph 0.02 in Rain Rain
2:15 PM 42.8 °F 39.3 °F 42.8 °F 100% 29.80 in 4.0 mi WNW 5.8 mph 17.3 mph 0.01 in Rain Rain
2:35 PM 42.8 °F 38.6 °F 42.8 °F 100% 29.79 in 10.0 mi West 6.9 mph - 0.01 in Rain Light Rain
2:55 PM 42.8 °F 40.1 °F 42.8 °F 100% 29.79 in 10.0 mi SW 4.6 mph - 0.01 in   Mostly Cloudy
3:15 PM 42.8 °F 40.1 °F 42.8 °F 100% 29.80 in 10.0 mi SW 4.6 mph - N/A   Scattered Clouds
3:35 PM 42.8 °F 40.1 °F 42.8 °F 100% 29.79 in 10.0 mi SW 4.6 mph - N/A   Clear
3:55 PM 42.8 °F 39.3 °F 42.8 °F 100% 29.79 in 10.0 mi SW 5.8 mph - N/A   Clear
4:15 PM 42.8 °F 40.1 °F 42.8 °F 100% 29.80 in 10.0 mi SSW 4.6 mph - N/A   Clear
4:35 PM 44.6 °F 40.7 °F 42.8 °F 93% 29.80 in 10.0 mi SW 6.9 mph - N/A   Scattered Clouds
4:55 PM 44.6 °F 42.2 °F 42.8 °F 93% 29.80 in 10.0 mi SW 4.6 mph - N/A   Overcast
5:15 PM 44.6 °F 42.2 °F 42.8 °F 93% 29.80 in 10.0 mi SW 4.6 mph - N/A   Overcast
5:35 PM 44.6 °F 41.4 °F 42.8 °F 93% 29.80 in 10.0 mi SW 5.8 mph - N/A   Overcast
5:55 PM 44.6 °F 41.4 °F 42.8 °F 93% 29.80 in 10.0 mi WSW 5.8 mph - N/A   Overcast
6:15 PM 44.6 °F 40.7 °F 42.8 °F 93% 29.81 in 10.0 mi SW 6.9 mph - N/A   Overcast
6:35 PM 44.6 °F 40.7 °F 41.0 °F 87% 29.81 in 10.0 mi West 6.9 mph - N/A   Overcast
6:55 PM 44.6 °F 40.2 °F 35.6 °F 71% 29.81 in 10.0 mi West 8.1 mph - N/A   Overcast
7:15 PM 42.8 °F 38.6 °F 32.0 °F 66% 29.83 in 10.0 mi West 6.9 mph - N/A   Overcast
7:35 PM 42.8 °F 40.1 °F 32.0 °F 66% 29.83 in 10.0 mi West 4.6 mph - N/A   Overcast
7:55 PM 42.8 °F 41.1 °F 32.0 °F 66% 29.84 in 10.0 mi West 3.5 mph - N/A   Overcast
8:15 PM 41.0 °F - 32.0 °F 70% 29.84 in 10.0 mi Calm Calm - N/A   Overcast
8:35 PM 41.0 °F 39.0 °F 33.8 °F 76% 29.85 in 10.0 mi WSW 3.5 mph - N/A   Overcast
8:55 PM 41.0 °F - 33.8 °F 76% 29.85 in 10.0 mi Calm Calm - N/A   Overcast
9:15 PM 41.0 °F - 33.8 °F 76% 29.86 in 10.0 mi Calm Calm - N/A   Overcast
9:35 PM 41.0 °F 36.4 °F 32.0 °F 70% 29.86 in 10.0 mi WSW 6.9 mph - N/A   Overcast
9:55 PM 42.8 °F 39.3 °F 32.0 °F 66% 29.87 in 10.0 mi WNW 5.8 mph - N/A   Overcast
10:15 PM 42.8 °F 38.0 °F 32.0 °F 66% 29.88 in 10.0 mi WNW 8.1 mph - N/A   Overcast
10:35 PM 42.8 °F 36.2 °F 32.0 °F 66% 29.89 in 10.0 mi WNW 12.7 mph 27.6 mph N/A   Overcast
10:55 PM 41.0 °F 35.2 °F 32.0 °F 70% 29.89 in 10.0 mi WNW 9.2 mph 16.1 mph N/A   Mostly Cloudy
11:15 PM 41.0 °F 35.8 °F 30.2 °F 65% 29.90 in 10.0 mi WNW 8.1 mph 20.7 mph N/A   Scattered Clouds
11:35 PM 39.2 °F 33.0 °F 30.2 °F 70% 29.90 in 10.0 mi WNW 9.2 mph - N/A   Clear
11:55 PM 37.4 °F 30.8 °F 30.2 °F 75% 29.91 in 10.0 mi West 9.2 mph - N/A   Clear